| time (UTC) | temp C | wind direction | speed KPH | gust KPH | rain 1hr cm | rain 24hr cm | rain mn cm | humidity % | barometer mb |
| 20260506100901 | 17 | 189 | 4.8 | 8.0 | 0.00 | 0.00 | 0.00 | 75 | 1011.5 |
| 20260506090900 | 17 | 196 | 8.0 | 16.1 | 0.00 | 0.00 | 0.00 | 76 | 1011.4 |
| 20260506080900 | 17 | 184 | 9.7 | 9.7 | 0.00 | 0.00 | 0.00 | 75 | 1011.9 |
| 20260506070852 | 18 | 182 | 8.0 | 14.5 | 0.00 | 0.00 | 0.00 | 72 | 1012.0 |
| 20260506060849 | 18 | 144 | 24.1 | 24.1 | 0.00 | 0.00 | 0.00 | 70 | 1012.3 |
| 20260506050859 | 20 | 180 | 17.7 | 22.5 | 0.00 | 0.00 | 0.00 | 67 | 1012.6 |
| 20260506040851 | 21 | 165 | 14.5 | 14.5 | 0.00 | 0.00 | 0.00 | 62 | 1012.9 |
| 20260506030948 | 21 | 173 | 14.5 | 14.5 | 0.00 | 0.00 | 0.00 | 58 | 1012.6 |
| 20260506020959 | 22 | 186 | 3.2 | 6.4 | 0.00 | 0.00 | 0.00 | 54 | 1012.6 |
| 20260506011001 | 23 | 162 | 4.8 | 4.8 | 0.00 | 0.00 | 0.00 | 51 | 1012.2 |
| 20260506000946 | 24 | 176 | 14.5 | 14.5 | 0.00 | 0.00 | 0.00 | 47 | 1011.7 |
| 20260505230951 | 25 | 194 | 17.7 | 17.7 | 0.00 | 0.00 | 0.00 | 42 | 1011.5 |
| 20260505220957 | 26 | 196 | 8.0 | 8.0 | 0.00 | 0.00 | 0.00 | 36 | 1011.4 |
| 20260505210952 | 27 | 196 | 9.7 | 27.4 | 0.00 | 0.00 | 0.00 | 32 | 1011.4 |
| 20260505201007 | 28 | 196 | 16.1 | 19.3 | 0.00 | 0.00 | 0.00 | 32 | 1011.3 |
| 20260505191005 | 29 | 217 | 8.0 | 19.3 | 0.00 | 0.00 | 0.00 | 31 | 1012.0 |
| 20260505180952 | 28 | 190 | 22.5 | 22.5 | 0.00 | 0.00 | 0.00 | 34 | 1012.9 |
| 20260505170949 | 28 | 215 | 4.8 | 9.7 | 0.00 | 0.00 | 0.00 | 41 | 1013.4 |
| 20260505160954 | 26 | 210 | 6.4 | 6.4 | 0.00 | 0.00 | 0.00 | 45 | 1014.1 |
| 20260505150957 | 25 | 182 | 9.7 | 14.5 | 0.00 | 0.00 | 0.00 | 49 | 1014.4 |
| 20260505120957 | 16 | 205 | 8.0 | 8.0 | 0.00 | 0.00 | 0.00 | 69 | 1014.3 |
| 20260505111006 | 15 | 206 | 4.8 | 12.9 | 0.00 | 0.00 | 0.00 | 74 | 1013.6 |